COSMOS 2432 (719)

Last updated on Thu Oct 30 2025 00:03:21 GMT+0000 (Coordinated Universal Time)

1 32276U 07052B 25302.11263179 -.00000011 00000+0 00000+0 0 9997 2 32276 65.7218 323.8290 0010531 307.1427 52.6692 2.13103206140151
UTC large
Height (km)
Speed (km/s)
/
Latitude / Longitude
Inclination (degrees)
Orbital Period (minutes)
Azimuth
Elevation
Range (km)
Doppler Factor

Next 0 passes for location: London (51.5072 / 0.1276)

Sorry there are no passes over London.